星链-5481 (STARLINK-5481 )

导读

STARLINK-5481是美国太空探索技术公司SpaceX星链星座的一员,于2023年7月7日发射入轨。星链项目旨在构建全球卫星互联网星座,为全球偏远地区、海上空中等场景提供高速低延迟网络服务,该卫星是星链批量部署计划中的组成部分,服务于星座组网扩容,推进全球覆盖的组网进程。

基本信息
目录编号:
57255
目录名称:
STARLINK-5481
国际标识:
2023-094AP
轨道中心:
EARTH
卫星名称:
星链-5481
卫星全名:
星链-5481 (STARLINK-5481 )
卫星状态:
在轨 (已飞行1074 天)
发射日期:
2023-07-07 UTC
国别 :
美国 (US)
星等 :
--
轨道信息
数据来源 国际轨道数据
星历时间: 2026-06-15T02:54:44+0800
9小时前
查看轨道信息
半长轴: 6861.209km
偏心率: 0.0001003
轨道倾角: 43.002°
近地点辐角 296.271°
升交点赤经 191.205°
平近点角 63.804°
近地点: 482.383km
远地点: 483.761km
周期: 94.267分钟
每日圈数: 15.275726
详细信息
固有亮度:
5
最大亮度:
2.4
卫星平台:
Starlink v1.5
覆盖范围:
全球
运营商:
太空探索技术公司
运营商所在国:
美国
制造商(研发单位):
太空探索技术公司
制造商所在国:
美国
使用方式:
暂无
卫星简介
星链(Starlink)计划是由太空探索技术公司(SpaceX)提出的一个巨型低轨卫星互联网星座项目,计划在2019年至2024年间在太空搭建由约1.2万颗卫星组成的“星链”网络,其中1584颗将部署在地球上空550千米处的近地轨道,并从2020年开始工作。该卫星仍在工作。
2D轨道图
3D轨道图
轨道高度分析图
轨道倾角分析图
轨道综合分析图
查看轨道综合分析图